Location: Festilli
(46.4000°N, 11.6667°E)
Time: 15:01:31
(UTC+00:00)

ATLAS 5 CENTAUR R/B - Pass Details

Date: 03 March 2021
Orbit: 254 x 14191 km, 60.8° (Epoch: 14 April)

Event Time Altitude Azimuth Distance (km) Brightness Sun altitude
Rises 16:53:31 0° 227° (SW) 11,350 9.6 0.7°
Reaches altitude 10° 17:04:49 10° 230° (SW) 7,861 8.8 -1.2°
Maximum altitude 17:22:37 66° 313° (NW) 1,383 4.1 -4.3°
Drops below altitude 10° 17:27:03 10° 37° (NE) 2,136 4.4 -5.1°
Enters shadow 17:28:41 -2° 42° (NE) 2,834 5.0 -5.3°
